[Iaude] MPEC P33: 2024 OQ2 [a=1.57,e=0.31,i=20.5,H=23.2]
    mpec at cfa.harvard.edu 
    mpec at cfa.harvard.edu
       
    Fri Aug  2 14:19:51 EDT 2024
    
    
  
M.P.E.C. 2024-P33                                Issued 2024 August 2, 18:18 UT
     The Minor Planet Electronic Circulars contain information on unusual
         minor planets, routine data on comets and natural satellites,
         and occasional editorial announcements.  They are published
    on behalf of Division F of the International Astronomical Union by the
          Minor Planet Center, Smithsonian Astrophysical Observatory,
                          Cambridge, MA 02138, U.S.A.
			  
             Prepared using the Tamkin Foundation Computer Network
                              MPC at CFA.HARVARD.EDU
            URL https://www.minorplanetcenter.net/    ISSN 1523-6714
                                    2024 OQ2                                    
Observations:
     K24O02Q  C2024 06 30.52047021 51 03.221-35 52 01.40         22.57GVEP033F51
     K24O02Q  C2024 06 30.53019721 51 03.189-35 51 48.68         23.14GVEP033F51
     K24O02Q  C2024 06 30.54962521 51 03.129-35 51 24.26         22.11GVEP033F51
     K24O02Q* C2024 07 30.43488721 14 50.330-12 12 15.17         20.98wXEP033F51
     K24O02Q  C2024 07 30.45977321 14 45.891-12 10 03.80         21.00wXEP033F51
     K24O02Q  C2024 07 30.47222521 14 43.687-12 08 58.52         21.41wXEP033F51
     K24O02Q 6C2024 08 01.01041121 10 28.349-09 50 47.57         20.9 GVEP033Z84
     K24O02Q 6C2024 08 01.01170021 10 28.079-09 50 40.43         21.0 GVEP033Z84
     K24O02Q 6C2024 08 01.01927421 10 26.695-09 49 58.27         20.7 GVEP033Z84
     K24O02Q 6C2024 08 01.02317421 10 25.950-09 49 36.76         20.8 GVEP033Z84
     K24O02Q 6C2024 08 01.02809821 10 25.056-09 49 09.16         20.3 GVEP033Z84
     K24O02Q 6C2024 08 01.03462621 10 23.852-09 48 32.89         21.1 GVEP033Z84
     K24O02Q KC2024 08 02.56659321 05 55.709-07 22 23.20         20.7 GVEP033474
     K24O02Q KC2024 08 02.57177521 05 54.691-07 21 52.63         20.4 GVEP033474
     K24O02Q KC2024 08 02.57696121 05 53.683-07 21 22.79         20.6 GVEP033474
Observer details:
474 Mount John Observatory, Lake Tekapo.  Observers A. C. Gilmore, P. M.
    Kilmartin.  Measurer P. M. Kilmartin.  0.6-m f/6.3 Reflector + CCD.
F51 Pan-STARRS 1, Haleakala.  Observers J. Herman, T. Lowe, P. Minguez, A.
    Schultz, I. Smith.  Measurers K. Chambers, T. de Boer, J. Fairlamb, H.
    Gao, M. Huber, C.-C. Lin, E. Magnier, Y. Ramanjooloo, R. Wainscoat, R.
    Weryk.  1.8-m Ritchey-Chretien + CCD.
Z84 Calar Alto-Schmidt.  Observers M. Micheli, R. Kresken, F. Ocana.
    Measurers R. Kresken, M. Micheli, F. Ocana, L. Conversi.  0.8-m f/3
    Schmidt + CCD.
Orbital elements:
2024 OQ2                                                 Earth MOID = 0.1863 AU
Epoch 2024 Oct. 17.0 TT = JDT 2460600.5                 Veres                   
M   5.64729              (2000.0)            P               Q                  
n   0.50281474     Peri.   63.92830     +0.93504179     -0.21956591             
a   1.5662607      Node   307.45735     +0.02399838     +0.82254890             
e   0.3139791      Incl.   20.52846     +0.35372438     +0.52459901             
P   1.96           H   23.22          G   0.15           U   6                  
Residuals in seconds of arc
240630 F51  0.1+  0.2-    240730 F51  0.0   0.0     240801 Z84  0.3+  0.3+
240630 F51  0.0   0.2+    240801 Z84  0.6+  0.1-    240801 Z84  0.3+  0.3+
240630 F51  0.1-  0.1-    240801 Z84  0.2+  0.1-    240802 474  0.2+  0.1-
240730 F51 (0.0   1.0-)   240801 Z84  0.4+  0.1+    240802 474  0.1-  0.2+
240730 F51  0.2-  0.0     240801 Z84  0.0   0.0     240802 474  0.3-  0.2-
Ephemeris:
2024 OQ2                 a,e,i = 1.57, 0.31, 21                  q = 1.0745
Date    TT    R. A. (2000) Decl.     Delta      r    Elong.  Phase     V
2024 07 03    21 51 06.6 -34 55 36   0.4063  1.3490   138.8    29.8    23.2
...
2024 07 18    21 40 24.9 -26 10 57   0.2891  1.2828   154.2    20.1    22.1
...
2024 07 26    21 25 47.8 -18 06 37   0.2402  1.2490   164.8    12.3    21.3
...
2024 08 01    21 10 30.0 -09 51 20   0.2125  1.2247   169.8     8.4    20.9
2024 08 02    21 07 36.7 -08 17 26   0.2088  1.2207   169.5     8.7    20.8
2024 08 03    21 04 38.2 -06 40 32   0.2053  1.2168   168.8     9.3    20.8
...
2024 08 09    20 45 12.8 +03 51 13   0.1910  1.1940   158.9    17.8    20.9
...
2024 08 17    20 16 53.5 +18 29 58   0.1889  1.1657   141.2    33.0    21.3
...
2024 09 01    19 27 13.0 +39 22 36   0.2242  1.1210   114.5    55.0    22.2
M. P. C. Staff               (C) Copyright 2024 MPC           M.P.E.C. 2024-P33
    
    
More information about the Iaude
mailing list